TimeEDT,TemperatureF,Dew PointF,Humidity,Sea Level PressureIn,VisibilityMPH,Wind Direction,Wind SpeedMPH,Gust SpeedMPH,PrecipitationIn,Events,Conditions,WindDirDegrees,DateUTC
12:24 AM,53.6,53.6,100,29.54,3.0,East,6.9,-,0.01,,Overcast,90,2013-04-12 04:24:00
12:29 AM,53.6,53.6,100,29.53,2.5,East,6.9,-,0.01,,Overcast,90,2013-04-12 04:29:00
12:48 AM,53.6,53.6,100,29.53,3.0,ESE,9.2,-,0.01,,Mostly Cloudy,110,2013-04-12 04:48:00
12:52 AM,53.1,53.1,100,29.52,3.0,ESE,9.2,-,0.01,,Mostly Cloudy,110,2013-04-12 04:52:00
12:59 AM,53.6,53.6,100,29.51,2.5,East,8.1,-,N/A,,Mostly Cloudy,100,2013-04-12 04:59:00
1:17 AM,51.8,51.8,100,29.50,1.2,ESE,9.2,-,N/A,,Overcast,110,2013-04-12 05:17:00
1:34 AM,53.6,53.6,100,29.51,3.0,ESE,9.2,-,N/A,,Mostly Cloudy,120,2013-04-12 05:34:00
1:52 AM,53.1,53.1,100,29.50,4.0,ESE,10.4,-,N/A,,Overcast,120,2013-04-12 05:52:00
2:03 AM,53.6,53.6,100,29.52,4.0,South,8.1,-,N/A,,Overcast,170,2013-04-12 06:03:00
2:20 AM,53.6,53.6,100,29.52,3.0,SW,5.8,-,N/A,,Overcast,220,2013-04-12 06:20:00
2:28 AM,53.6,53.6,100,29.52,2.5,SSW,4.6,-,N/A,,Overcast,210,2013-04-12 06:28:00
2:52 AM,54.0,54.0,100,29.49,1.8,Calm,Calm,-,N/A,,Overcast,0,2013-04-12 06:52:00
3:17 AM,53.6,53.6,100,29.48,2.0,Calm,Calm,-,N/A,,Overcast,0,2013-04-12 07:17:00
3:36 AM,53.6,53.6,100,29.49,1.8,Calm,Calm,-,N/A,,Overcast,0,2013-04-12 07:36:00
3:48 AM,53.6,53.6,100,29.49,2.0,South,5.8,-,0.01,Rain,Light Rain,190,2013-04-12 07:48:00
3:52 AM,55.0,55.0,100,29.48,1.8,South,5.8,-,0.01,Rain,Light Rain,190,2013-04-12 07:52:00
4:05 AM,55.4,55.4,100,29.48,2.0,SSW,5.8,-,0.01,Rain,Light Rain,200,2013-04-12 08:05:00
4:19 AM,55.4,55.4,100,29.48,4.0,South,8.1,-,0.01,,Overcast,190,2013-04-12 08:19:00
4:27 AM,55.4,55.4,100,29.47,4.0,South,8.1,-,0.01,,Overcast,190,2013-04-12 08:27:00
4:52 AM,55.9,55.9,100,29.47,4.0,SSW,8.1,-,0.02,Rain,Light Rain,200,2013-04-12 08:52:00
5:52 AM,50.0,48.9,96,29.50,8.0,West,11.5,20.7,0.07,Rain,Light Rain,270,2013-04-12 09:52:00
6:52 AM,45.0,44.1,97,29.53,10.0,West,11.5,20.7,0.08,Rain,Light Rain,270,2013-04-12 10:52:00
7:52 AM,42.1,41.0,96,29.57,10.0,West,12.7,21.9,0.00,,Overcast,270,2013-04-12 11:52:00
8:52 AM,41.0,41.0,100,29.62,7.0,West,13.8,21.9,N/A,,Overcast,270,2013-04-12 12:52:00
9:52 AM,43.0,42.1,97,29.63,7.0,WSW,11.5,20.7,N/A,,Overcast,240,2013-04-12 13:52:00
10:45 AM,42.8,39.2,87,29.64,10.0,WSW,13.8,21.9,N/A,,Overcast,240,2013-04-12 14:45:00
10:52 AM,43.0,39.0,86,29.65,9.0,WSW,12.7,21.9,N/A,,Overcast,250,2013-04-12 14:52:00
11:52 AM,42.1,39.0,89,29.68,6.0,SW,18.4,25.3,N/A,,Overcast,230,2013-04-12 15:52:00
12:00 PM,42.8,39.2,87,29.67,9.0,SW,15.0,21.9,N/A,,Overcast,230,2013-04-12 16:00:00
12:07 PM,42.8,39.2,87,29.67,10.0,SW,15.0,24.2,N/A,,Overcast,230,2013-04-12 16:07:00
12:35 PM,42.8,37.4,81,29.69,10.0,WSW,12.7,20.7,N/A,,Overcast,240,2013-04-12 16:35:00
12:52 PM,41.0,37.0,86,29.71,10.0,WSW,17.3,25.3,N/A,,Overcast,240,2013-04-12 16:52:00
1:18 PM,41.0,35.6,81,29.70,10.0,WSW,15.0,26.5,N/A,,Overcast,240,2013-04-12 17:18:00
1:52 PM,39.9,34.0,79,29.72,10.0,SW,18.4,24.2,N/A,,Overcast,220,2013-04-12 17:52:00
2:52 PM,39.0,34.0,82,29.75,7.0,WSW,17.3,23.0,0.00,Rain,Light Rain,250,2013-04-12 18:52:00
3:52 PM,39.0,33.1,79,29.76,10.0,SW,9.2,19.6,0.00,,Overcast,230,2013-04-12 19:52:00
4:01 PM,39.2,32.0,75,29.75,10.0,SW,15.0,21.9,N/A,,Overcast,230,2013-04-12 20:01:00
4:52 PM,39.9,32.0,73,29.78,10.0,WSW,11.5,-,N/A,,Overcast,240,2013-04-12 20:52:00
5:01 PM,39.2,32.0,75,29.77,10.0,SW,12.7,-,N/A,,Overcast,230,2013-04-12 21:01:00
5:52 PM,39.9,33.1,77,29.80,10.0,WSW,6.9,-,N/A,,Overcast,240,2013-04-12 21:52:00
6:52 PM,39.9,33.1,77,29.83,10.0,WSW,6.9,-,N/A,,Overcast,240,2013-04-12 22:52:00
7:52 PM,39.9,33.1,77,29.84,10.0,WSW,9.2,21.9,N/A,,Overcast,240,2013-04-12 23:52:00
8:29 PM,39.2,33.8,81,29.82,10.0,WSW,10.4,18.4,N/A,,Overcast,240,2013-04-13 00:29:00
8:52 PM,39.9,33.1,77,29.85,10.0,WSW,8.1,-,N/A,,Overcast,240,2013-04-13 00:52:00
9:32 PM,39.2,32.0,75,29.84,10.0,SW,9.2,92.1,N/A,,Squalls,230,2013-04-13 01:32:00
9:52 PM,39.9,33.1,77,29.86,10.0,SSW,10.4,-,N/A,,Overcast,210,2013-04-13 01:52:00
10:52 PM,39.9,32.0,73,29.88,10.0,SW,13.8,-,N/A,,Overcast,230,2013-04-13 02:52:00
11:19 PM,39.2,33.8,81,29.86,10.0,SW,10.4,20.7,N/A,,Overcast,230,2013-04-13 03:19:00
11:52 PM,39.9,33.1,77,29.88,10.0,WSW,15.0,23.0,N/A,,Overcast,240,2013-04-13 03:52:00